Leakey, Texas, United States (78873)
Lat: 29.73N, Lon: 99.76W
Wx Zone: TXZ185
Local Info
Past Weather Observations for Friday, April 29, 2016

NOTE: This archive is for the closest National Weather Service station to Leakey. Information may differ from the station used for current weather conditions.

Click here for Long-term Archive

Time Weather Temperature Dewpoint Humidity Pressure Winds Precip Visibility
23:55
Clear
70°F / 21°C 57°F / 14°C 64% 29.74 in
(1007 mb)
N 3.5 mph
(N 6 kph)
- 10SM
23:35
Clear
70°F / 21°C 63°F / 17°C 78% 29.74 in
(1007 mb)
N 5.8 mph
(N 9 kph)
- 10SM
23:15
Clear
Fog And Mist
70°F / 21°C 66°F / 19°C 88% 29.77 in
(1008 mb)
NNW 4.6 mph
(NNW 7 kph)
- 5SM
22:55
Clear
Hazy
72°F / 22°C 66°F / 19°C 83% 29.74 in
(1007 mb)
Calm - 5SM
22:35
Clear
Fog And Mist
72°F / 22°C 66°F / 19°C 83% 29.74 in
(1007 mb)
Calm - 5SM
22:15
Partly Cloudy
Hazy
72°F / 22°C 66°F / 19°C 83% 29.74 in
(1007 mb)
Calm - 5SM
21:55
Clear
Fog And Mist
72°F / 22°C 66°F / 19°C 83% 29.74 in
(1007 mb)
Calm - 6SM
21:35
Clear
Hazy
72°F / 22°C 66°F / 19°C 83% 29.74 in
(1007 mb)
Calm - 6SM
21:15
Clear
72°F / 22°C 66°F / 19°C 83% 29.71 in
(1006 mb)
Calm - 7SM
20:55
Clear
72°F / 22°C 66°F / 19°C 83% 29.71 in
(1006 mb)
Calm - 7SM
20:35
Clear
72°F / 22°C 66°F / 19°C 83% 29.71 in
(1006 mb)
Calm - 7SM
20:15
Clear
73°F / 23°C 66°F / 19°C 78% 29.71 in
(1006 mb)
Calm - 8SM
19:55
Partly Cloudy
73°F / 23°C 66°F / 19°C 78% 29.71 in
(1006 mb)
Calm - 8SM
19:35
Clear
75°F / 24°C 66°F / 19°C 74% 29.68 in
(1005 mb)
Calm - 8SM
19:15
Partly Cloudy
75°F / 24°C 66°F / 19°C 74% 29.71 in
(1006 mb)
Calm - 7SM
18:55
Partly Cloudy
79°F / 26°C 66°F / 19°C 65% 29.68 in
(1005 mb)
Calm - 8SM
18:35
Clear
77°F / 25°C 66°F / 19°C 69% 29.68 in
(1005 mb)
Calm - 9SM
18:15
Partly Cloudy
79°F / 26°C 66°F / 19°C 65% 29.68 in
(1005 mb)
Calm - 7SM
17:55
Partly Cloudy
81°F / 27°C 68°F / 20°C 66% 29.68 in
(1005 mb)
Calm - 7SM
17:35
Clear
82°F / 28°C 64°F / 18°C 55% 29.68 in
(1005 mb)
Calm - 9SM
17:15
Clear
82°F / 28°C 64°F / 18°C 55% 29.65 in
(1004 mb)
Calm - 8SM
16:55
Clear
84°F / 29°C 66°F / 19°C 55% 29.68 in
(1005 mb)
Calm - 10SM
16:35
Clear
84°F / 29°C 66°F / 19°C 55% 29.68 in
(1005 mb)
Calm - 8SM
16:15
Clear
82°F / 28°C 68°F / 20°C 62% 29.68 in
(1005 mb)
Calm - 8SM
15:55
Clear
82°F / 28°C 68°F / 20°C 62% 29.68 in
(1005 mb)
Calm - 8SM
15:35
Clear
82°F / 28°C 70°F / 21°C 66% 29.68 in
(1005 mb)
Calm - 8SM
15:15
Clear
81°F / 27°C 68°F / 20°C 66% 29.68 in
(1005 mb)
Calm - 9SM
14:55
Clear
82°F / 28°C 70°F / 21°C 66% 29.68 in
(1005 mb)
Calm - 8SM
14:35
Clear
81°F / 27°C 70°F / 21°C 70% 29.68 in
(1005 mb)
SSE 6.9 mph
(SSE 11 kph)
- 8SM
14:15
Partly Cloudy
81°F / 27°C 72°F / 22°C 74% 29.71 in
(1006 mb)
SSE 8.1 mph
(SSE 13 kph)
- 7SM
13:55
Partly Cloudy
79°F / 26°C 72°F / 22°C 79% 29.71 in
(1006 mb)
SSE 10.4 mph
(SSE 17 kph)
- 8SM
13:35
Mostly Cloudy
79°F / 26°C 72°F / 22°C 79% 29.71 in
(1006 mb)
SSE 6.9 mph
(SSE 11 kph)
- 9SM
13:15
Mostly Cloudy
77°F / 25°C 72°F / 22°C 83% 29.74 in
(1007 mb)
SSE 10.4 mph
(SSE 17 kph)
- 10SM
12:55
Overcast
75°F / 24°C 72°F / 22°C 89% 29.74 in
(1007 mb)
SSE 8.1 mph
(SSE 13 kph)
- 10SM
12:35
Overcast
77°F / 25°C 72°F / 22°C 83% 29.74 in
(1007 mb)
S 6.9 mph
(S 11 kph)
- 8SM
12:15
Overcast
Fog And Mist
73°F / 23°C 72°F / 22°C 94% 29.77 in
(1008 mb)
S 5.8 mph
(S 9 kph)
- 5SM
11:55
Overcast
Fog And Mist
73°F / 23°C 72°F / 22°C 94% 29.77 in
(1008 mb)
S 6.9 mph
(S 11 kph)
- 3SM
11:35
Overcast
Fog And Mist
73°F / 23°C 72°F / 22°C 94% 29.77 in
(1008 mb)
S 9.2 mph
(S 15 kph)
- 3SM
11:15
Overcast
Fog And Mist
72°F / 22°C 72°F / 22°C 100% 29.77 in
(1008 mb)
S 10.4 mph
(S 17 kph)
- 2SM
10:55
Overcast
Fog And Mist
72°F / 22°C 72°F / 22°C 100% 29.77 in
(1008 mb)
SSE 10.4 mph
(SSE 17 kph)
- 3/4SM
10:35
Overcast
Fog And Mist
72°F / 22°C 70°F / 21°C 94% 29.77 in
(1008 mb)
S 11.5 mph
(S 19 kph)
- 3/4SM
10:15
Overcast
Fog And Mist
70°F / 21°C 70°F / 21°C 100% 29.77 in
(1008 mb)
S 10.4 mph
(S 17 kph)
- 3/4SM
09:55
Overcast
Fog And Mist
72°F / 22°C 70°F / 21°C 94% 29.77 in
(1008 mb)
SSE 10.4 mph
(SSE 17 kph)
- 3/4SM
09:35
Overcast
Fog And Mist
72°F / 22°C 70°F / 21°C 94% 29.77 in
(1008 mb)
SSE 11.5 mph
(SSE 19 kph)
- 3/4SM
09:15
Overcast
Fog
72°F / 22°C 70°F / 21°C 94% 29.77 in
(1008 mb)
S 11.5 mph
(S 19 kph)
- 1/2SM
08:55
Overcast
Fog And Mist
70°F / 21°C 70°F / 21°C 100% 29.77 in
(1008 mb)
SSE 9.2 mph
(SSE 15 kph)
0.01 in
(0.25 mm)
3/4SM
08:35
Overcast
Fog And Mist
70°F / 21°C 70°F / 21°C 100% 29.77 in
(1008 mb)
S 6.9 mph
(S 11 kph)
- 3/4SM
08:15
Overcast
Fog And Mist
70°F / 21°C 70°F / 21°C 100% 29.77 in
(1008 mb)
SSE 12.7 mph
(SSE 20 kph)
- 3/4SM
07:55
Overcast
Fog
70°F / 21°C 70°F / 21°C 100% 29.77 in
(1008 mb)
SSE 9.2 mph
(SSE 15 kph)
- 1/2SM
07:35
Overcast
Fog And Mist
70°F / 21°C 70°F / 21°C 100% 29.77 in
(1008 mb)
SSE 5.8 mph
(SSE 9 kph)
- 1 1/4SM
07:15
Overcast
Fog
70°F / 21°C 70°F / 21°C 100% 29.77 in
(1008 mb)
SSE 11.5 mph
(SSE 19 kph)
- 1/2SM
06:55
Overcast
Fog
70°F / 21°C 70°F / 21°C 100% 29.77 in
(1008 mb)
S 11.5 mph
(S 19 kph)
- 1/4SM
06:35
Overcast
Fog And Mist
70°F / 21°C 68°F / 20°C 94% 29.77 in
(1008 mb)
SSE 11.5 mph
(SSE 19 kph)
- 1 1/4SM
06:15
Overcast
Fog And Mist
70°F / 21°C 68°F / 20°C 94% 29.74 in
(1007 mb)
SSE 13.8 mph
(SSE 22 kph)
- 2SM
05:55
Overcast
Fog And Mist
70°F / 21°C 66°F / 19°C 88% 29.74 in
(1007 mb)
SSE 12.7 mph
(SSE 20 kph)
- 3SM
05:35
Mostly Cloudy
Fog And Mist
70°F / 21°C 66°F / 19°C 88% 29.74 in
(1007 mb)
SSE 15 mph
(SSE 24 kph)
- 3SM
05:15
Mostly Cloudy
Fog And Mist
70°F / 21°C 66°F / 19°C 88% 29.74 in
(1007 mb)
SSE 12.7 mph
(SSE 20 kph)
- 3SM
04:55
Mostly Cloudy
Fog And Mist
70°F / 21°C 66°F / 19°C 88% 29.74 in
(1007 mb)
SSE 12.7 mph
(SSE 20 kph)
- 3SM
04:35
Mostly Cloudy
Fog And Mist
70°F / 21°C 66°F / 19°C 88% 29.74 in
(1007 mb)
SSE 13.8 mph
(SSE 22 kph)
- 3SM
04:15
Mostly Cloudy
Fog And Mist
70°F / 21°C 68°F / 20°C 94% 29.74 in
(1007 mb)
SSE 15 mph
(SSE 24 kph)
- 3SM
03:55
Overcast
Fog And Mist
70°F / 21°C 68°F / 20°C 94% 29.74 in
(1007 mb)
SSE 15 mph
(SSE 24 kph)
- 3SM
03:35
Overcast
Fog And Mist
70°F / 21°C 68°F / 20°C 94% 29.74 in
(1007 mb)
SSE 17.3 mph
(SSE 28 kph)
- 2 1/2SM
03:15
Overcast
Fog And Mist
70°F / 21°C 70°F / 21°C 100% 29.74 in
(1007 mb)
SSE 15 mph
(SSE 24 kph)
- 2SM
02:55
Overcast
Fog And Mist
70°F / 21°C 70°F / 21°C 100% 29.74 in
(1007 mb)
SSE 18.4 mph
(SSE 30 kph)
- 2 1/2SM
02:35
Overcast
Fog And Mist
70°F / 21°C 70°F / 21°C 100% 29.74 in
(1007 mb)
SSE 12.7 mph
(SSE 20 kph)
- 3SM
02:15
Overcast
Fog And Mist
70°F / 21°C 70°F / 21°C 100% 29.74 in
(1007 mb)
SSE 15 mph
(SSE 24 kph)
- 2SM
01:55
Overcast
Fog And Mist
70°F / 21°C 70°F / 21°C 100% 29.77 in
(1008 mb)
SSE 15 mph
(SSE 24 kph)
- 1 1/4SM
01:35
Overcast
Fog And Mist
70°F / 21°C 70°F / 21°C 100% 29.77 in
(1008 mb)
SSE 16.1 mph
(SSE 26 kph)
- 1 1/2SM
01:15
Overcast
Fog And Mist
72°F / 22°C 70°F / 21°C 94% 29.77 in
(1008 mb)
SSE 17.3 mph
(SSE 28 kph)
- 2SM
00:55
Overcast
Fog And Mist
72°F / 22°C 70°F / 21°C 94% 29.77 in
(1008 mb)
SSE 13.8 mph
(SSE 22 kph)
- 3SM
00:35
Overcast
Fog And Mist
72°F / 22°C 70°F / 21°C 94% 29.77 in
(1008 mb)
SE 12.7 mph
(SE 20 kph)
- 3SM
00:15
Overcast
Fog And Mist
73°F / 23°C 70°F / 21°C 89% 29.77 in
(1008 mb)
SE 12.7 mph
(SE 20 kph)
- 4SM
Time Weather Temperature Dewpoint Humidity Pressure Winds Precip Visibility


Weather for websites

WeatherForYou.com, LLC is not responsible for any damages or problems caused by this service. Current weather conditions are obtained from the closest station including government and personal stations which may have varying degrees of accuracy. Weather forecasts are derived from the NOAA NDFD. Like all things, this site belongs to Jesus Christ... He just trusts us to maintain it. If you have any questions or comments email webmaster@weatherforyou.com

Copyright © 2016, WeatherForYou.com LLC. All rights reserved.